ImprimablePdf
Antwerp, 25/04/2010, BEL - DVV Antwerp Marathon & 10 Miles
Liste des rapports > Marathon - Classement + Video
Recherche: Page: [1]
37 Entrées
 
Les réclamations ne sont plus acceptées, les résultats sont considérés comme définitifs.
RangNrNomAgeIOCTempsTkmMoy.ScrLocalité
1.782FVAN LEEUWEN LIESBETH46NLD3:04:414:23 13.7193VOORSCHOTENTéléchargez votre diplome!
2.628FGUILLEMYN MARIJKE46BEL3:05:304:24 13.65100POELKAPELLETéléchargez votre diplome!
3.808FBOURQUIN LINDA47BEL3:13:134:35 13.10153PONT-A-CELLESTéléchargez votre diplome!
4.523FSTEUKERS HEIDI45BEL3:24:104:51 12.40276MOERZEKETéléchargez votre diplome!
5.997FVERMEERSCH NICOLE45BEL3:28:314:57 12.14336BLANKENBERGETéléchargez votre diplome!
6.2047FKRETZER Uta46BEL3:28:484:57 12.13338Téléchargez votre diplome!
7.1215FSODEN SYLVIE45FRA3:37:485:10 11.62475BOULOGNE SUR MERTéléchargez votre diplome!
8.2089F0CHOA Maria49BEL3:38:125:11 11.60485Téléchargez votre diplome!
9.1543FVANDENBULCKE Nausikaa45BEL3:38:315:11 11.59489SCHOTENTéléchargez votre diplome!
10.643FKOENE INGRID47NLD3:43:095:18 11.35566YERSEKETéléchargez votre diplome!
11.627FVANDEPUTTE CHRISTELLE48BEL3:45:245:21 11.23614DEINZETéléchargez votre diplome!
12.418FVANDEWAETERE DORA48BEL3:45:495:22 11.21621EERNEGEMTéléchargez votre diplome!
13.520FGEEROMS GRIET48BEL3:47:215:24 11.14651DUFFELTéléchargez votre diplome!
14.2266FDEBOOM CHANTAL46BEL3:50:145:28 11.00685SINT-NIKLAASTéléchargez votre diplome!
15.866FDEWILDER NICOLE49BEL3:54:445:34 10.79768TERVURENTéléchargez votre diplome!
16.2272FVAN DAMME MARIJKE49BEL3:55:075:35 10.77773SINT-NIKLAASTéléchargez votre diplome!
17.236FROOMS CARINE49BEL3:57:415:38 10.65838SINT-NIKLAASTéléchargez votre diplome!
18.363FHOOGLAND NYNKE48NLD3:57:565:39 10.64845GRONINGENTéléchargez votre diplome!
19.2380FLAUWERS ANNE47BEL3:59:475:41 10.56885RONSETéléchargez votre diplome!
20.168FSOMMERS Caroline48BEL4:03:575:47 10.38929ROERMONDTéléchargez votre diplome!
21.1264FVAN DEN BROECK BRIGITTE46BEL4:07:345:53 10.23975SCHELLETéléchargez votre diplome!
22.590FFOSTER CHRISTIANE45BEL4:13:316:01 9.991061BOUSVALTéléchargez votre diplome!
23.2366FMAMPAEY MARTINE45BEL4:15:116:03 9.921093KONTICHTéléchargez votre diplome!
24.1470FFANCELLO MIRANDA46BEL4:15:376:04 9.901099BOORTMEERBEEKTéléchargez votre diplome!
25.1525FCOLLET CHRISTINE46BEL4:16:436:06 9.861115BRUXELLES 7Téléchargez votre diplome!
26.364FBORMS ELKE45BEL4:19:476:10 9.751158EREMBODEGEMTéléchargez votre diplome!
27.2313FMELIS SONJA49BEL4:21:566:13 9.671175MELSELETéléchargez votre diplome!
28.1252FSCHELLEN WENDY46BEL4:23:116:15 9.621192BORGERHOUT (ANTWERPEN)Téléchargez votre diplome!
29.1514FVAN DEN BRIL CARLA46BEL4:27:386:21 9.461215BORGERHOUT (ANTWERPEN)Téléchargez votre diplome!
30.607FYSERBYT Mia47BEL4:31:176:26 9.331240Téléchargez votre diplome!
31.2084FSCHROOTEN Moniek48BEL4:41:096:40 9.011315Téléchargez votre diplome!
32.164FSOMMERS ROB45NLD4:56:057:02 8.551383ROERMONDTéléchargez votre diplome!
33.745FSCHNEIDER CHRISTINE45BEL5:08:167:19 8.211412MECHELENTéléchargez votre diplome!
34.709FVAN GELDER PATRICIA48BEL5:09:287:21 8.181414EDEGEMTéléchargez votre diplome!
35.169FPEERAER TERRY45BEL5:39:268:03 7.461450ANTWERPEN LOTéléchargez votre diplome!
DNF506FGESCHIERE SUZANNE46NLDMIDDELBURG
DNF2339FVANDENBROECKE GRETHEL45BELBOOM
DNF: abandon; DSQ: disqualifié; Vitesse en km/h
ChronoRace - Electronic Timing - www.chronorace.be